Latest Coastal Weather Observations for Browse Island

IDW60701

Issued at 7:52 am WST Monday 22 December 2014 (issued every 10 minutes, with the page automatically refreshed every 10 minutes)

About coastal observations | Map of coastal stations | Coastal observations for WA | Marine services | Other Formats
Station Details ID: 200784 Name: BROWSE ISLAND Lat: -14.11 Lon: 123.55 Height: 3.7 m
Data from the previous 72 hours. | See also: Recent months for locations in Western Australia
Date/Time
WST
Temp

°C
Wind Pressure Rain
since 9am
mm
Weather Cloud Vis
km
Sea
Height
m
Swell
Dir
 
Speed
knots
Gust
knots
hPa Trend Height
m
Period
s
Dir
22/07:30am 30.0 S 9 11 1008.0 - - - - - - - - -
22/07:00am 29.7 SSW 9 - 1008.1 - - - - - - - - -
22/06:30am 30.0 S 7 - 1007.0 - - - - - - - - -
22/06:00am 29.6 SSW 7 - 1007.5 - - - - - - - - -
22/05:30am 30.0 S 7 - 1007.0 - - - - - - - - -
22/05:00am 29.5 SSW 7 - 1006.7 - - - - - - - - -
22/04:30am 30.0 SSW 8 - 1006.0 - - - - - - - - -
22/04:00am 29.6 SW 6 - 1006.1 - - - - - - - - -
22/03:30am 30.0 SW 6 - 1006.0 - - - - - - - - -
22/03:00am 29.6 SW 6 - 1006.1 - - - - - - - - -
22/02:30am 30.0 WSW 5 - 1006.0 - - - - - - - - -
22/02:00am 29.7 SW 6 - 1005.9 - - - - - - - - -
22/01:30am 30.0 SW 7 - 1006.0 - - - - - - - - -
22/01:00am 29.6 SW 6 - 1006.3 - - - - - - - - -
22/12:30am 30.0 SW 6 - 1006.0 - - - - - - - - -
22/12:00am 29.9 SSW 6 6 1006.4 - - - - - - - - -
 
Date/Time
WST
Temp

°C
Wind Pressure Rain
since 9am
mm
Weather Cloud Vis
km
Sea
Height
m
Swell
Dir
 
Speed
knots
Gust
knots
hPa Trend Height
m
Period
s
Dir
21/11:30pm 30.0 SSW 6 - 1006.0 - - - - - - - - -
21/11:00pm 29.9 SSW 7 - 1007.1 - - - - - - - - -
21/10:30pm 30.0 SSW 6 - 1007.0 - - - - - - - - -
21/10:00pm 29.9 SSW 5 - 1007.3 - - - - - - - - -
21/09:30pm 30.0 S 5 - 1007.0 - - - - - - - - -
21/09:00pm 30.0 SSW 5 - 1007.4 - - - - - - - - -
21/08:30pm 30.0 SSW 5 - 1007.0 - - - - - - - - -
21/08:00pm 30.0 SSW 7 - 1006.9 - - - - - - - - -
21/07:30pm 30.0 SSW 7 - 1006.0 - - - - - - - - -
21/07:00pm 30.1 SSW 8 - 1006.4 - - - - - - - - -
21/06:30pm 30.0 SSW 8 - 1006.0 - - - - - - - - -
21/06:00pm 30.3 SSW 9 - 1005.8 - - - - - - - - -
21/05:30pm 30.0 SSW 10 - 1005.0 - - - - - - - - -
21/05:00pm 30.2 SSW 10 - 1005.3 - - - - - - - - -
21/04:30pm 30.0 S 10 - 1005.0 - - - - - - - - -
21/04:00pm 30.3 S 11 - 1005.2 - - - - - - - - -
21/03:30pm 30.0 S 9 - 1005.0 - - - - - - - - -
21/03:00pm 30.3 SSW 9 - 1005.3 - - - - - - - - -
21/02:30pm 31.0 SSW 8 - 1005.0 - - - - - - - - -
21/02:00pm 30.4 SSW 6 - 1006.2 - - - - - - - - -
21/01:30pm 30.0 S 8 - 1006.0 - - - - - - - - -
21/01:00pm 30.2 SSW 8 - 1007.2 - - - - - - - - -
21/12:30pm 30.0 SSW 8 - 1007.0 - - - - - - - - -
21/12:00pm 30.4 S 9 - 1008.2 - - - - - - - - -
21/11:30am 30.0 SSW 8 - 1008.0 - - - - - - - - -
21/11:00am 30.3 SSW 8 - 1008.6 - - - - - - - - -
21/10:30am 30.0 SW 8 - 1008.0 - - - - - - - - -
21/10:00am 30.2 SW 5 - 1008.8 - - - - - - - - -
21/09:30am 31.0 SSW 6 - 1009.0 - - - - - - - - -
21/09:00am 30.3 SSW 5 - 1009.0 - - - - - - - - -
21/08:30am 31.0 WSW 4 - 1009.0 - - - - - - - - -
21/08:00am 30.2 SW 5 - 1009.1 - - - - - - - - -
21/07:30am 30.0 SW 5 - 1009.0 - - - - - - - - -
21/07:00am 29.6 SW 5 - 1008.6 - - - - - - - - -
21/06:30am 29.0 SW 6 - 1008.0 - - - - - - - - -
21/06:00am 29.3 WSW 5 - 1007.9 - - - - - - - - -
21/05:30am 29.0 WSW 6 - 1007.0 - - - - - - - - -
21/05:00am 29.3 WSW 6 - 1007.2 - - - - - - - - -
21/04:30am 29.0 W 5 - 1007.0 - - - - - - - - -
21/04:00am 29.3 W 4 - 1006.8 - - - - - - - - -
21/03:30am 29.0 W 4 - 1006.0 - - - - - - - - -
21/03:00am 29.4 SW 4 - 1006.6 - - - - - - - - -
21/02:30am 29.0 WSW 3 - 1006.0 - - - - - - - - -
21/02:00am 29.4 CALM 0 - 1006.6 - - - - - - - - -
21/01:30am 30.0 S 3 - 1006.0 - - - - - - - - -
21/01:00am 29.7 S 3 - 1006.8 - - - - - - - - -
21/12:30am 30.0 SSE 3 - 1007.0 - - - - - - - - -
21/12:00am 29.7 ESE 2 - 1007.8 - - - - - - - - -
 
Date/Time
WST
Temp

°C
Wind Pressure Rain
since 9am
mm
Weather Cloud Vis
km
Sea
Height
m
Swell
Dir
 
Speed
knots
Gust
knots
hPa Trend Height
m
Period
s
Dir
20/11:30pm 30.0 SE 3 - 1008.0 - - - - - - - - -
20/11:00pm 29.9 SE 5 - 1008.9 - - - - - - - - -
20/10:30pm 30.0 E 3 - 1009.0 - - - - - - - - -
20/10:00pm 30.0 SE 2 - 1008.9 - - - - - - - - -
20/09:30pm 30.0 E 1 - 1008.0 - - - - - - - - -
20/09:00pm 30.1 SSE 4 - 1008.7 - - - - - - - - -
20/08:30pm 30.0 SE 4 - 1008.0 - - - - - - - - -
20/08:00pm 29.9 SE 5 - 1008.0 - - - - - - - - -
20/07:30pm 30.0 SE 7 - 1008.0 - - - - - - - - -
20/07:00pm 29.9 SSE 8 - 1007.4 - - - - - - - - -
20/06:30pm 30.0 SSE 8 - 1006.0 - - - - - - - - -
20/06:00pm 29.8 S 10 - 1006.3 - - - - - - - - -
20/05:30pm 30.0 SSE 12 - 1006.0 - - - - - - - - -
20/05:00pm 30.0 S 12 - 1006.2 - - - - - - - - -
20/04:30pm 30.0 S 12 - 1005.0 - - - - - - - - -
20/04:00pm 30.2 S 12 - 1006.0 - - - - - - - - -
20/03:30pm 30.0 S 14 - 1006.0 - - - - - - - - -
20/03:00pm 30.2 S 12 - 1006.4 - - - - - - - - -
20/02:30pm 31.0 S 11 - 1006.0 - - - - - - - - -
20/02:00pm 30.4 S 10 - 1006.9 - - - - - - - - -
20/01:30pm 31.0 S 10 - 1007.0 - - - - - - - - -
20/01:00pm 30.8 S 7 - 1007.5 - - - - - - - - -
20/12:30pm 31.0 S 9 - 1008.0 - - - - - - - - -
20/12:00pm 30.5 S 9 - 1008.6 - - - - - - - - -
20/11:30am 31.0 S 8 - 1009.0 - - - - - - - - -
20/11:00am 30.6 S 6 - 1009.2 - - - - - - - - -
20/10:30am 31.0 S 6 - 1009.0 - - - - - - - - -
20/10:00am 30.5 S 7 - 1010.0 - - - - - - - - -
20/09:30am 30.0 S 7 - 1010.0 - - - - - - - - -
20/09:00am 30.6 S 7 - 1010.6 - - - - - - - - -
20/08:30am 31.0 SSE 7 - 1010.0 - - - - - - - - -
20/08:00am 30.2 SSE 8 - 1010.5 - - - - - - - - -
20/07:30am 30.0 S 7 - 1010.0 - - - - - - - - -
20/07:00am 29.9 S 6 - 1009.6 - - - - - - - - -
20/06:30am 30.0 S 7 - 1009.0 - - - - - - - - -
20/06:00am 29.8 S 6 - 1009.0 - - - - - - - - -
20/05:30am 30.0 SSW 7 - 1008.0 - - - - - - - - -
20/05:00am 29.6 SW 7 - 1008.2 - - - - - - - - -
20/04:30am 30.0 SW 7 - 1008.0 - - - - - - - - -
20/04:00am 29.7 SSW 8 - 1008.0 - - - - - - - - -
20/03:30am 30.0 SW 9 - 1008.0 - - - - - - - - -
20/03:00am 29.8 SW 9 - 1008.0 - - - - - - - - -
20/02:30am 30.0 WSW 9 - 1008.0 - - - - - - - - -
20/02:00am 29.8 WSW 9 - 1008.0 - - - - - - - - -
20/01:30am 30.0 W 8 - 1008.0 - - - - - - - - -
20/01:00am 30.0 WSW 8 - 1008.4 - - - - - - - - -
20/12:30am 30.0 WSW 10 - 1008.0 - - - - - - - - -
20/12:00am 30.1 WSW 9 - 1009.4 - - - - - - - - -
 
Date/Time
WST
Temp

°C
Wind Pressure Rain
since 9am
mm
Weather Cloud Vis
km
Sea
Height
m
Swell
Dir
 
Speed
knots
Gust
knots
hPa Trend Height
m
Period
s
Dir
19/11:30pm 30.0 W 9 - 1009.0 - - - - - - - - -
19/11:00pm 30.3 W 9 - 1010.0 - - - - - - - - -
19/10:30pm 30.0 W 9 - 1010.0 - - - - - - - - -
19/10:00pm 30.3 W 9 - 1010.0 - - - - - - - - -
19/09:30pm 30.0 W 9 - 1010.0 - - - - - - - - -
19/09:00pm 30.3 W 9 - 1009.7 - - - - - - - - -
19/08:30pm 30.0 WSW 9 - 1009.0 - - - - - - - - -
19/08:00pm 30.4 WSW 7 - 1009.6 - - - - - - - - -
19/07:30pm 31.0 SW 7 - 1009.0 - - - - - - - - -
19/07:00pm 30.6 SW 8 - 1009.4 - - - - - - - - -
19/06:30pm 31.0 SW 8 - 1009.0 - - - - - - - - -
19/06:00pm 30.6 SW 7 - 1008.8 - - - - - - - - -
19/05:30pm 31.0 SSW 6 - 1008.0 - - - - - - - - -
19/05:00pm 30.7 SW 7 - 1007.6 - - - - - - - - -
19/04:30pm 31.0 WSW 6 - 1007.0 - - - - - - - - -
19/04:00pm 30.8 SW 6 - 1007.1 - - - - - - - - -
19/03:30pm 31.0 SW 6 - 1007.0 - - - - - - - - -
19/03:00pm 30.7 SW 8 - 1007.5 - - - - - - - - -
19/02:30pm 31.0 S 7 - 1008.0 - - - - - - - - -
19/02:00pm 30.7 SSW 6 - 1008.5 - - - - - - - - -
19/01:30pm 31.0 S 6 - 1008.0 - - - - - - - - -
19/01:00pm 30.8 SSW 7 - 1009.1 - - - - - - - - -
19/12:30pm 32.0 S 7 - 1009.0 - - - - - - - - -
19/12:00pm 30.5 S 7 - 1010.0 - - - - - - - - -
19/11:30am 31.0 S 8 - 1010.0 - - - - - - - - -
19/11:00am 30.8 S 7 - 1010.5 - - - - - - - - -
19/10:30am 31.0 S 7 - 1010.0 - - - - - - - - -
19/10:00am 30.7 S 5 - 1010.8 - - - - - - - - -
19/09:30am 31.0 SW 4 - 1010.0 - - - - - - - - -
19/09:00am 31.1 W 4 - 1010.6 - - - - - - - - -
19/08:30am 31.0 WNW 5 - 1010.0 - - - - - - - - -
19/08:00am 30.2 NW 5 - 1009.8 - - - - - - - - -

Other Formats:

Comma delimited format used in spreadsheet applications
http://www.bom.gov.au/fwo/IDW60701/IDW60701.94103.axf

JavaScript Object Notation format (JSON) in row-major order
http://www.bom.gov.au/fwo/IDW60701/IDW60701.94103.json